EHI
11 9 7 7 9 10 9 9 8 6 5 6 6 5 5 5 5 6 5 7 9 8 8 9 9 6 3 2 2 1 0 0 1 1 0 0 0 1 1 1 1 1 0
13 10 8 8 9 11 13 12 10 9 9 8 7 5 4 4 6 7 5 6 7 7 7 9 8 5 3 1 1 0 0 1 2 2 1 0 0 0 0 1 1 1 1
12 10 8 7 9 12 14 13 10 9 10 9 6 5 5 5 7 8 7 7 5 5 6 7 7 5 3 1 1 0 0 1 2 3 2 1 0 0 0 0 1 1 0
9 7 6 6 7 10 11 10 8 7 6 6 6 6 7 8 8 9 9 9 7 5 4 6 6 4 3 2 1 1 0 1 2 3 3 1 0 0 0 0 0 0 0
5 4 4 5 6 6 7 6 6 7 5 4 5 7 9 11 11 10 10 9 8 5 5 6 7 5 3 2 1 2 2 2 3 4 4 3 1 1 1 0 0 0 0
3 3 5 6 6 4 4 4 6 8 6 4 4 6 10 13 14 14 12 9 7 7 8 9 8 6 3 3 2 4 5 5 5 6 6 5 3 2 2 1 1 0 0
3 4 7 8 7 5 4 4 5 6 5 4 3 4 8 12 15 16 14 10 7 8 11 13 13 9 6 5 5 5 7 8 7 6 5 4 3 2 2 2 1 1 1
6 7 8 9 8 8 8 8 7 5 3 3 3 3 5 8 11 12 13 11 8 10 12 14 16 14 11 10 8 6 8 10 8 5 3 2 1 1 1 1 1 1 2
10 10 10 9 9 10 11 11 10 7 5 3 2 2 2 4 5 7 9 10 10 11 11 12 15 16 15 14 12 9 9 10 9 6 3 1 1 0 0 0 0 1 1
14 13 13 12 13 12 11 10 8 7 6 4 2 1 1 2 4 5 6 7 9 10 11 10 12 16 16 16 16 14 10 8 7 6 4 3 2 1 0 0 0 0 0
18 16 15 17 17 15 11 9 7 6 5 4 3 3 2 3 4 5 5 5 7 9 10 10 12 14 15 16 17 14 10 6 5 4 3 3 3 2 1 0 0 0 0
21 18 17 20 20 17 13 11 10 8 6 5 5 5 4 4 4 4 4 5 6 8 9 11 11 12 12 14 15 13 10 6 3 2 2 2 3 2 1 1 0 0 0
19 18 18 21 22 21 17 14 13 12 10 8 6 5 4 5 5 4 4 5 6 7 8 9 10 10 11 14 12 10 8 5 2 1 0 1 1 2 2 2 1 0 0
19 20 21 22 22 22 20 17 15 14 12 9 7 5 5 5 5 4 4 5 4 5 6 8 9 8 10 12 10 8 7 4 1 0 0 0 0 1 1 1 1 0 0
19 21 22 21 21 21 19 17 16 15 14 11 8 6 6 5 4 4 5 5 4 4 5 8 9 8 8 8 7 8 9 4 0 0 0 0 0 0 0 0 0 0 0
20 19 20 19 19 19 19 18 18 17 16 14 11 9 8 6 4 4 5 6 5 4 5 8 10 10 10 7 5 9 10 5 1 0 0 0 0 0 0 0 0 0 0
21 20 19 18 16 16 18 19 18 17 16 16 14 13 12 10 6 4 5 6 6 6 6 7 10 13 14 10 8 9 9 5 2 0 0 0 0 0 0 0 0 0 0
24 22 18 15 13 14 17 18 17 15 15 15 15 16 14 12 9 7 6 7 7 6 6 6 8 12 15 15 14 11 7 4 3 1 0 0 0 0 0 0 0 0 0
27 23 17 13 12 13 15 16 14 12 11 11 13 15 15 13 12 11 9 8 8 7 7 7 7 9 11 15 18 14 8 5 3 2 1 0 0 0 0 0 0 0 0
26 23 18 15 14 13 14 14 13 10 9 9 11 13 14 14 14 12 11 10 9 8 8 8 7 7 9 14 18 15 11 8 6 4 2 1 1 1 0 0 0 0 0
20 21 20 17 15 13 12 12 11 10 9 10 10 11 13 13 12 10 9 9 9 9 9 9 9 8 9 13 16 15 12 11 10 7 5 4 3 2 1 1 1 0 0
18 20 20 18 16 13 10 7 7 9 10 11 12 12 11 10 9 8 6 6 6 7 9 9 9 8 9 11 14 14 13 13 13 12 9 6 4 4 3 2 1 0 0
19 20 20 18 17 13 8 5 5 6 9 10 12 12 10 9 9 10 8 5 5 5 6 6 7 8 8 9 11 13 13 12 13 14 12 8 6 5 4 4 2 1 0
16 17 18 17 15 12 8 5 4 5 8 10 11 11 9 8 10 11 11 9 8 6 5 5 6 8 8 8 9 11 11 11 11 12 11 8 6 6 5 5 3 1 0
12 12 13 13 13 11 9 6 5 7 10 12 12 11 9 8 9 9 10 11 11 10 8 6 6 7 6 5 6 8 9 10 10 10 10 8 6 5 4 4 3 1 0
9 9 10 11 11 11 11 9 6 9 12 14 14 13 10 8 7 7 8 11 12 13 11 8 6 5 4 3 3 5 9 10 9 9 9 7 6 4 2 3 2 1 0
Wind_Speed
1 1 1 1 1 0 1 1 1 1 2 2 2 2 2 3 3 4 4 9 11 11 11 10 10 10 10 11 10 10 11 10 10 10 10 10 10 10 10 10 10 10 9
1 1 0 1 1 0 0 1 1 1 2 1 1 1 1 1 3 4 5 6 10 11 11 11 10 11 11 11 11 10 10 10 10 10 10 9 9 10 10 11 11 10 10
1 1 0 1 1 0 1 1 1 1 1 1 1 1 0 1 2 3 4 4 6 9 11 10 10 11 12 12 12 11 10 10 9 9 9 9 9 10 10 11 11 11 10
1 1 1 1 1 0 0 1 0 1 1 1 1 1 0 1 2 3 3 4 4 5 8 10 9 10 13 13 12 11 10 10 10 9 9 9 9 9 10 11 11 11 11
2 2 1 1 1 1 1 1 2 1 2 2 1 1 1 2 2 3 3 4 4 5 5 7 9 9 11 12 12 12 11 10 10 10 9 9 9 9 9 10 11 11 11
2 2 1 2 2 1 2 2 2 2 2 2 2 0 1 2 1 2 3 3 3 4 5 5 6 6 10 10 11 12 12 11 10 10 10 10 10 9 9 10 10 11 11
3 2 3 2 2 2 2 2 2 3 2 1 1 1 1 2 2 1 2 3 3 4 4 5 5 4 5 8 8 9 10 11 11 11 11 11 10 10 10 11 11 11 11
2 2 2 2 3 2 2 2 2 2 2 2 1 1 1 1 0 3 3 3 3 3 4 5 5 4 4 4 6 9 9 10 11 11 11 11 10 10 10 10 11 11 11
2 2 2 2 2 2 1 2 2 2 3 2 1 1 1 1 1 1 1 2 2 2 2 3 5 5 5 5 5 8 10 10 11 12 11 11 10 10 10 10 11 11 11
1 1 2 2 2 2 2 2 2 2 2 3 2 1 1 0 0 1 1 0 1 2 2 3 4 5 5 4 5 8 10 10 10 10 11 11 10 10 10 10 11 12 12
1 1 1 1 2 2 2 2 2 2 2 2 3 2 2 2 1 1 1 1 1 1 2 2 2 3 4 5 5 7 10 10 10 9 9 10 11 11 12 12 12 12 12
1 2 2 1 2 2 2 2 2 2 3 3 3 3 2 2 2 1 2 2 1 1 2 2 2 2 3 4 6 9 10 11 11 10 10 9 10 11 13 13 13 13 12
1 2 2 1 2 2 2 2 1 2 2 3 2 2 2 2 2 1 1 2 2 2 1 1 2 2 2 2 3 7 9 10 11 10 10 10 9 9 11 12 12 13 12
1 1 1 1 1 2 2 2 2 2 2 3 3 2 3 2 2 2 1 2 2 2 2 2 1 1 0 2 3 6 5 9 10 10 11 10 10 9 10 10 10 10 11
1 1 1 1 1 1 2 2 1 2 2 2 3 3 3 3 2 2 2 1 1 2 3 2 1 1 1 1 4 3 3 7 10 10 11 11 11 10 10 10 9 9 9
2 1 1 1 1 1 2 2 2 2 2 2 2 2 3 3 3 3 2 2 1 2 3 2 2 1 1 2 3 2 3 6 10 10 11 12 12 11 10 10 10 9 10
1 1 1 2 1 1 2 2 3 2 2 2 3 3 3 4 3 3 3 3 2 2 3 3 2 2 2 2 1 2 2 4 5 10 11 11 12 12 11 11 11 11 11
1 1 1 2 2 2 2 2 3 3 3 2 2 2 3 3 3 3 3 3 3 3 3 4 3 2 3 2 2 3 3 4 4 8 11 11 12 12 11 12 12 12 12
0 1 1 1 2 2 2 3 3 3 3 3 2 2 2 3 3 3 4 4 4 4 3 4 4 3 3 2 2 3 4 3 4 5 9 10 11 11 11 12 13 13 13
0 0 1 1 1 2 3 3 4 4 3 3 2 2 2 2 2 3 3 4 4 4 4 4 4 3 3 2 2 2 3 2 3 3 3 5 8 10 11 12 13 13 12
1 0 0 1 2 1 2 3 4 4 3 4 3 3 3 2 2 3 4 3 4 4 4 4 4 4 3 2 2 3 3 2 3 3 1 2 3 4 6 9 12 13 13
1 1 0 1 1 2 3 4 4 4 4 4 4 3 4 2 3 4 6 6 4 4 4 4 4 4 4 3 2 3 3 3 3 2 1 3 3 3 4 5 10 13 13
1 1 1 1 0 1 3 4 5 5 4 4 4 3 5 4 3 3 5 6 6 7 6 5 6 6 5 4 3 4 3 4 5 3 2 4 3 3 3 4 8 12 13
1 1 2 1 1 2 3 4 6 5 5 4 3 3 3 4 5 5 5 5 5 5 6 5 5 6 6 4 4 4 4 5 5 4 3 3 2 3 2 2 6 10 11
2 2 2 1 1 1 2 4 5 4 4 4 3 3 3 3 5 6 5 5 6 5 6 7 7 7 8 8 5 3 3 3 4 3 2 2 2 2 2 2 2 7 9
2 2 2 1 1 1 2 2 4 3 4 4 3 2 2 3 5 5 4 5 6 6 7 7 5 6 6 6 6 4 3 3 3 3 2 1 1 1 2 2 1 2 4
Wind_Direction
43 48 353 311 243 222 211 238 261 274 285 263 243 239 200 177 174 155 158 176 177 181 185 187 190 195 196 196 197 198 200 201 199 198 199 203 202 200 197 197 200 201 203
31 33 345 321 305 276 260 250 244 241 252 277 279 265 245 165 172 159 153 175 181 183 188 190 194 198 198 197 199 200 202 204 202 200 202 204 203 203 203 204 204 203 204
8 345 338 311 310 337 231 251 273 273 258 264 275 273 238 155 154 161 160 169 177 190 194 193 198 199 196 198 199 200 201 202 203 202 202 204 206 206 206 207 205 205 206
0 349 21 359 326 332 340 289 319 296 312 320 292 290 106 110 131 154 161 170 175 183 193 198 201 197 195 198 200 201 202 200 202 204 204 206 209 206 204 205 206 208 207
12 353 32 5 322 13 4 331 19 336 328 327 280 209 171 141 172 174 163 173 178 178 174 189 197 198 195 199 200 201 203 203 203 204 206 207 209 207 206 206 207 207 205
18 4 1 6 344 26 21 13 6 335 308 303 294 303 185 150 179 167 176 174 184 183 176 177 180 200 200 200 199 201 202 204 205 208 210 211 211 209 208 207 207 206 205
12 19 8 1 1 29 20 359 354 332 322 310 315 316 277 178 164 203 190 181 190 186 175 170 173 181 185 191 193 199 204 205 207 211 213 214 215 214 211 211 210 207 206
10 17 25 353 9 19 13 0 354 335 321 332 324 332 335 323 277 208 190 191 196 185 181 177 168 172 169 171 185 198 207 209 211 215 216 216 217 217 215 211 207 203 201
53 11 9 4 354 19 12 334 357 333 324 321 350 357 332 343 309 269 201 179 179 179 189 171 174 174 180 174 176 197 205 210 215 218 216 217 218 217 212 206 202 199 200
62 41 22 359 343 360 6 335 8 327 320 324 325 307 298 310 275 299 296 198 210 201 201 194 176 177 184 174 173 175 193 204 211 215 215 215 216 214 208 208 208 205 202
65 46 61 5 353 4 359 354 359 339 336 343 334 327 336 334 305 271 302 309 288 232 202 197 180 180 190 181 178 181 189 199 205 211 216 218 219 219 212 211 212 210 208
46 31 48 25 17 3 2 354 338 346 351 348 340 336 342 341 331 325 306 302 295 273 241 194 188 197 209 187 187 183 190 197 201 206 213 218 221 222 215 214 215 215 213
64 34 36 26 16 5 354 338 342 345 350 333 332 332 330 320 320 315 310 309 312 295 283 240 199 197 212 159 170 184 191 195 200 205 211 215 219 223 219 216 217 216 214
79 66 60 30 15 1 354 343 349 344 343 325 324 330 320 318 317 315 306 315 316 305 287 276 242 188 169 150 167 184 191 194 201 206 211 214 217 220 217 212 211 211 211
31 62 71 45 355 0 349 337 344 347 335 323 320 329 326 315 321 324 309 284 280 302 300 292 302 248 207 165 167 191 189 205 208 209 211 212 214 214 213 209 207 208 210
11 18 21 1 348 6 4 336 329 335 335 331 319 333 327 324 328 323 317 307 286 281 289 302 287 271 289 271 182 204 209 212 214 209 212 212 212 209 211 210 205 206 209
355 11 354 338 339 347 344 330 323 330 327 325 326 340 329 315 328 325 322 320 310 299 288 291 287 289 264 264 228 241 226 217 211 211 211 211 208 206 210 210 206 207 210
344 4 345 334 327 351 343 328 319 326 321 320 319 329 328 323 330 322 320 311 304 294 285 292 294 286 277 259 226 243 254 245 222 213 207 208 207 208 211 211 209 210 214
325 353 320 330 336 341 330 321 313 305 305 309 315 321 323 325 328 322 314 312 306 305 296 290 288 278 276 275 259 256 261 260 244 221 206 207 210 212 214 215 213 214 215
241 286 315 335 330 348 342 332 319 306 305 303 302 300 299 309 311 309 305 310 308 308 304 296 289 288 284 289 285 278 278 272 273 258 220 211 213 217 220 218 216 215 215
275 294 328 315 309 319 342 337 315 309 310 306 307 306 293 287 313 306 308 312 306 302 300 295 293 299 298 300 284 279 277 276 267 259 242 228 213 217 221 224 220 214 213
307 312 253 273 314 332 350 350 331 314 306 299 298 299 287 279 294 289 299 299 292 287 292 291 290 286 284 287 284 279 288 288 278 254 241 259 233 228 223 213 211 205 207
302 293 289 273 294 341 331 333 324 300 294 296 303 304 303 318 318 306 288 278 280 279 273 274 281 284 286 289 289 289 290 293 279 263 248 259 242 239 239 227 206 202 202
302 280 273 279 296 330 331 324 315 286 287 292 299 298 303 311 322 321 303 294 283 279 269 261 266 276 283 287 276 272 269 273 271 261 229 245 252 246 249 229 205 200 201
298 289 273 265 271 308 325 323 317 291 293 296 291 305 308 305 315 316 302 299 296 290 283 279 266 265 272 283 284 288 286 286 285 278 251 234 258 276 261 255 220 195 193
286 285 287 280 272 272 269 300 307 297 300 299 297 290 311 316 319 323 303 298 298 300 303 300 288 271 266 268 265 254 265 277 287 283 294 278 254 278 282 263 243 200 206